Madrid, Spain

11:26 AM CEST on August 29, 2016 (GMT +0200)
Barajas

Weather History for LEMD - November, 2012

Change the Weather History Date:

Tuesday, November 27, 2012

  Actual Average Record
Temperature  
Mean Temperature 40 °F -  
Max Temperature 48 °F 50 °F 68 °F (1996)
Min Temperature 32 °F 34 °F 24 °F (2008)
Degree Days  
Heating Degree Days 24    
Moisture  
Dew Point 32 °F    
Average Humidity 68    
Maximum Humidity 93    
Minimum Humidity 38    
Precipitation  
Precipitation 0.00 in 0.06 in - ()
Sea Level Pressure  
Sea Level Pressure 29.79 in    
Wind  
Wind Speed 4 mph ()    
Max Wind Speed 10 mph    
Max Gust Speed -    
Visibility 7.4 miles    
Events      
Averages and records for this station are not official NWS values.
T = Trace of Precipitation, MM = Missing Value Source: Averaged Metar Reports

Daily Weather History Graph

Daily Weather History Graph

Search for Another Location

Airport or City:

Trip Planner

Search our weather history database for the weather conditions in past years. The results will help you decide how hot, cold, wet, or windy it might be!

Date:

Astronomy

Nov. 27, 2012 Rise Set
Actual Time 8:14 AM CET 5:49 PM CET
Civil Twilight 7:44 AM CET 6:19 PM CET
Nautical Twilight 7:10 AM CET 6:53 PM CET
Astronomical Twilight 6:37 AM CET 7:25 PM CET
Moon 5:11 PM CET (11/27) 7:06 AM CET (11/27)
Length of Visible Light 10h 35m
Length of Day
9h 35m
Waxing Gibbous, 99% of the Moon is Illuminated
Nov 27
Waxing Gibbous
Nov 28
Full
Dec 6
Last Quarter
Dec 13
New
Dec 20
First Quarter

Hourly Weather History & Observations

Time (CET) Temp. Windchill Dew Point Humidity Pressure Visibility Wind Dir Wind Speed Gust Speed Precip Events Conditions
12:00 AM 44.6 °F - 33.8 °F 66% 29.86 in 6.2 mi ENE 2.3 mph - N/A   Mostly Cloudy
12:30 AM 44.6 °F - 33.8 °F 66% 29.86 in 6.2 mi Calm Calm - N/A   Mostly Cloudy
1:00 AM 44 °F - 33 °F 55% 29.90 in 19 mi WNW 2.3 mph - -   Mostly Cloudy
1:00 AM 46.4 °F - 33.8 °F 62% 29.86 in 6.2 mi Calm Calm - N/A   Mostly Cloudy
1:30 AM 44.6 °F 42.2 °F 33.8 °F 66% 29.86 in 6.2 mi WNW 4.6 mph - N/A   Partly Cloudy
2:00 AM 42.8 °F - 33.8 °F 70% 29.83 in 6.2 mi West 2.3 mph - N/A   Scattered Clouds
2:30 AM 42.8 °F - 33.8 °F 70% 29.83 in 6.2 mi Variable 2.3 mph - N/A   Mostly Cloudy
3:00 AM 42.8 °F 41.1 °F 33.8 °F 70% 29.83 in 6.2 mi WNW 3.5 mph - N/A   Partly Cloudy
3:30 AM 41.0 °F 39.0 °F 33.8 °F 76% 29.83 in 6.2 mi NNW 3.5 mph - N/A   Scattered Clouds
4:30 AM 41.0 °F 37.1 °F 33.8 °F 76% 29.83 in 6.2 mi North 5.8 mph - N/A   Scattered Clouds
5:00 AM 39.2 °F 35.0 °F 32.0 °F 75% 29.83 in 6.2 mi North 5.8 mph - N/A   Scattered Clouds
5:30 AM 39.2 °F 33.6 °F 32.0 °F 75% 29.83 in 6.2 mi North 8.1 mph - N/A   Partly Cloudy
6:00 AM 37.4 °F 32.8 °F 32.0 °F 81% 29.83 in 6.2 mi NNW 5.8 mph - N/A   Partly Cloudy
6:30 AM 37.4 °F 31.4 °F 33.8 °F 87% 29.80 in 6.2 mi NW 8.1 mph - N/A   Scattered Clouds
7:00 AM 37 °F - 31 °F 72% 29.89 in 19 mi NNW 6.9 mph - -   Scattered Clouds
7:00 AM 35.6 °F 29.9 °F 32.0 °F 87% 29.80 in 6.2 mi NNW 6.9 mph - N/A   Partly Cloudy
7:30 AM 37.4 °F 32.8 °F 32.0 °F 81% 29.80 in 6.2 mi NNW 5.8 mph - N/A   Partly Cloudy
8:00 AM 37.4 °F 33.8 °F 32.0 °F 81% 29.80 in 6.2 mi NW 4.6 mph - N/A   Partly Cloudy
8:30 AM 35.6 °F 32.8 °F 32.0 °F 87% 29.80 in 6.2 mi NE 3.5 mph - N/A   Partly Cloudy
9:00 AM 37.4 °F 33.8 °F 32.0 °F 81% 29.83 in - NNE 4.6 mph - N/A   Clear
9:30 AM 41.0 °F 38.0 °F 32.0 °F 70% 29.83 in - NNW 4.6 mph - N/A   Clear
10:00 AM 41.0 °F 36.4 °F 32.0 °F 70% 29.83 in - NNW 6.9 mph - N/A   Clear
10:30 AM 42.8 °F 39.3 °F 33.8 °F 70% 29.83 in - NNW 5.8 mph - N/A   Clear
11:00 AM 44.6 °F 41.4 °F 30.2 °F 57% 29.83 in - NW 5.8 mph - N/A   Clear
11:30 AM 46.4 °F 44.3 °F 30.2 °F 53% 29.80 in - WNW 4.6 mph - N/A   Clear
12:00 PM 48.2 °F - 30.2 °F 50% 29.80 in 6.2 mi NW 5.8 mph - N/A   Partly Cloudy
12:30 PM 48.2 °F - 32.0 °F 54% 29.80 in 6.2 mi WNW 3.5 mph - N/A   Partly Cloudy
1:00 PM 48 °F - 30 °F 38% 29.81 in 19 mi North 9.2 mph - -   Partly Cloudy
1:00 PM 48.2 °F - 30.2 °F 50% 29.77 in 6.2 mi North 8.1 mph - N/A   Scattered Clouds
1:30 PM 46.4 °F 41.5 °F 30.2 °F 53% 29.77 in 6.2 mi North 10.4 mph - N/A   Partly Cloudy
2:00 PM 46.4 °F 42.4 °F 32.0 °F 57% 29.77 in 6.2 mi North 8.1 mph - N/A   Partly Cloudy
2:30 PM 46.4 °F 41.5 °F 30.2 °F 53% 29.77 in 6.2 mi North 10.4 mph - N/A   Partly Cloudy
3:00 PM 46.4 °F 42.4 °F 32.0 °F 57% 29.74 in 6.2 mi NNW 8.1 mph - N/A   Partly Cloudy
3:30 PM 44.6 °F 41.4 °F 30.2 °F 57% 29.74 in 6.2 mi North 5.8 mph - N/A   Partly Cloudy
4:00 PM 44.6 °F 41.4 °F 32.0 °F 61% 29.74 in 6.2 mi North 5.8 mph - N/A   Partly Cloudy
4:30 PM 44.6 °F 40.7 °F 32.0 °F 61% 29.74 in 6.2 mi NW 6.9 mph - N/A   Partly Cloudy
5:00 PM 42.8 °F 41.1 °F 32.0 °F 66% 29.74 in 6.2 mi North 3.5 mph - N/A   Partly Cloudy
5:30 PM 42.8 °F - 30.2 °F 61% 29.74 in 6.2 mi Variable 1.2 mph - N/A   Partly Cloudy
6:00 PM 41.0 °F - 30.2 °F 65% 29.74 in 6.2 mi Variable 1.2 mph - N/A   Partly Cloudy
6:30 PM 42.8 °F 40.1 °F 28.4 °F 57% 29.74 in 6.2 mi SW 4.6 mph - N/A   Partly Cloudy
7:00 PM 39 °F - 29 °F 55% 29.80 in 19 mi South 4.6 mph - -   Scattered Clouds
7:00 PM 42.8 °F - 30.2 °F 61% 29.74 in 6.2 mi Variable 2.3 mph - N/A   Partly Cloudy
7:30 PM 39.2 °F 35.9 °F 30.2 °F 70% 29.74 in 6.2 mi SSE 4.6 mph - N/A   Partly Cloudy
8:00 PM 39.2 °F - 30.2 °F 70% 29.74 in 6.2 mi East 1.2 mph - N/A   Partly Cloudy
8:30 PM 39.2 °F 37.0 °F 30.2 °F 70% 29.74 in 6.2 mi SE 3.5 mph - N/A   Partly Cloudy
9:00 PM 37.4 °F - 30.2 °F 75% 29.74 in 6.2 mi Variable 1.2 mph - N/A   Partly Cloudy
9:30 PM 35.6 °F 32.8 °F 30.2 °F 81% 29.74 in 6.2 mi North 3.5 mph - N/A   Partly Cloudy
10:00 PM 33.8 °F - 30.2 °F 87% 29.74 in 6.2 mi Variable 1.2 mph - N/A   Partly Cloudy
11:00 PM 33.8 °F - 30.2 °F 87% 29.74 in 6.2 mi Variable 1.2 mph - N/A   Partly Cloudy
11:30 PM 32.0 °F - 30.2 °F 93% 29.74 in 6.2 mi Calm Calm - N/A   Partly Cloudy